STARLINK-32741, 62526

Orbit data source: Space-Track

STARLINK-32741, 62526 is a payload satellite owned by SpaceX/Seattle (US) in LEO that was launched on Wed, 08 Jan 2025 UTC via an FALCON 9 launch vehicle from the Air Force Eastern Test Range (AFETR). Payload-class satellites include a variety of spacecraft equipped with specific instruments for various scientific and technological missions. These include communications satellites like Starlink; space stations such as the ISS; scientific satellites like the Hubble; Earth observation satellites from companies like Planet Labs, Umbra, and HawkEye 360; GPS; miniature CubeSats for education and research; and military/defense satellites.

Loading next visibility...
Identifier
62526, 2025-004R
Orbit
LEO
Country
Flag of USUS
Related business
Manufacturer
SpaceX/Seattle
Mission
Operational Commercial Communications
Bus & Motor
STARLINK V2M, Unknown motor
Mass
730 kg wet, ~700 kg dry
Launch date (UTC)
2025-01-08 (2 years ago)
Launch vehicle
FALCON 9
Launch site
Air Force Eastern Test Range (AFETR)
Object type
Payload
Rocket body
Debris
Shape & HBR
Box + 2 Pan, 17.7 m
Radar Cross Section
33.884 m², Large (>1 m²)

Expand to show TLE details & history
Last TLE update: 1 day ago

TLE from 1 day ago
0 STARLINK-32741
1 62526U 25004R   26254.04302950  .00005750  00000-0  21830-3 0  9998
2 62526  43.0021 249.8338 0001100 257.2220 102.8509 15.27583703 94843
Epoch: 2026-09-11T01:01Z
TLE epoch observation values (Epoch: 2026-09-11T01:01:57.748Z)
Latitude
-0.00002°
Longitude
-115.72889°
Altitude
482.982 km
Speed
7.626 km/s
True Right ascension
16h 39m 20s
True Declination
0° 00' 00"
Sunlit
Object was in daylight at epoch
Visualization orbit readout
Latitude
Unknown
Longitude
Unknown
Altitude
Unknown
Speed
Unknown
Apparent Right ascension
Unknown
Apparent Declination
Unknown
Sunlit
N/A
Visualization observer readout
Local Sidereal Time
20:06:35
Azimuth
Unknown
Elevation
Unknown
Doppler factor
Unknown
Orbital elements
Apogee altitude
485.738 km
Perigee altitude
484.228 km
Semi-major axis
6,863.12 km
Eccentricity
0.00011
Inclination
43.0021°
RAAN
249.8338°
Arg. of periapsis
257.222°
True anomaly
102.86319°
Mean anomaly
102.8509°
Eccentric anomaly
102.85704°
Mean motion
3.81734 °/min
Orbital period
94.31 mins
BSTAR
0.0002183
Loading maneuver chart data...
Computing Atmospheric mass density...
Loading historical data...
Loading historical data...
Loading historical data...
Loading historical data...
Loading historical data...
Loading historical data...
Loading historical data...

Documentation

Showing up to 5 results
|